Location: Unspecified
(48.8656°N, 0.0000°E)
Time: 22:43:58
(UTC+00:00)

Vanguard 3 - Pass Details

Date: 26 June 2019
Orbit: 507 x 3264 km, 33.4° (Epoch: 17 July)

Event Time Altitude Azimuth Distance (km) Brightness Sun altitude
Rises 11:26:25 0° 243° (WSW) 6,612 11.8 63.5°
Reaches altitude 10° 11:31:54 10° 236° (SW) 5,197 11.5 63.8°
Maximum altitude 11:43:30 33° 181° (S) 2,689 11.0 64.2°
Drops below altitude 10° 11:50:50 10° 121° (ESE) 3,237 10.6 64.4°
Sets 11:53:24 0° 111° (ESE) 3,893 10.8 64.4°
